Regional Weather Roundup
Issued by NWS State College, PA

Home | Current Version | Previous Version | Text Only | Print | Product List | Glossary On
Versions: 1 2 3 4 5 6 7 8 9 10 11 12 13 14 15 16 17 18 19 20 21 22 23 24 25 26 27 28 29 30 31 32 33 34 35 36 37 38 39 40 41 42 43 44 45 46 47 48 49 50
359
ASUS41 KCTP 011103
RWRCTP

REGIONAL WEATHER ROUNDUP
NATIONAL WEATHER SERVICE STATE COLLEGE PA
700 AM EDT SAT OCT 01 2016

Note: "fair" indicates few or no clouds below 12,000 feet with no
significant weather and/or obstructions to visibility.

* = STATION THAT DOES NOT REPORT PRECIPITATION /E.G. RAIN...SNOW...ETC/
    THUNDER OR FOG.

PAZ002>004-007>009-013>016-020>023-029>032-011200-
WESTERN PENNSYLVANIA

CITY           SKY/WX    TMP DP  RH WIND       PRES   REMARKS
ERIE           CLOUDY    59  55  87 E5        30.11S
MEADVILLE      LGT RAIN  55  53  93 E8        30.11S
FRANKLIN*        N/A     54  52  94 E8        30.13F
NEW CASTLE     CLOUDY    57  56  96 E3        30.11R
BEAVER COUNTY  NOT AVBL
BUTLER*        CLOUDY    55  52  88 E7        30.13S
PITTSBURGH INT FOG       56  56 100 E5        30.09S VSB 1
PITTSBURGH     CLOUDY    57  54  89 E7        30.09R
INDIANA*       CLOUDY    57  55  94 CALM      30.16S
LATROBE        CLOUDY    57  57 100 CALM      30.12S
WASHINGTON CO* MOCLDY    55  52  88 CALM      30.10S
$$

PAZ004>006-010>012-017>019-024>028-033>037-041-042-045-046-049>053-011200-
CENTRAL PENNSYLVANIA

CITY           SKY/WX    TMP DP  RH WIND       PRES   REMARKS
BRADFORD       LGT RAIN  53  53 100 E6        30.16S
DUBOIS         CLOUDY    54  51  90 E5        30.14S
CLEARFIELD     CLOUDY    54  54 100 E7        30.16S
JOHNSTOWN      CLOUDY    54  53  97 E6        30.14S
ALTOONA        LGT RAIN  54  54 100 NE3       30.17R
STATE COLLEGE  CLOUDY    54  54 100 NE6       30.17S
WILLIAMSPORT   CLOUDY    57  54  89 CALM      30.17S
SELINSGROVE    LGT RAIN  57  56  96 N3        30.18S
FT INDIANTOWN  CLOUDY    55  53  92 E13       30.18S
CAPITAL CITY   CLOUDY    57  54  89 E9        30.17S FOG
HARRISBURG     DRIZZLE   56  56 100 E6        30.16S FOG
YORK           CLOUDY    57  57 100 E5        30.16S FOG
$$

PAZ038>040-043-044-047-048-054-055-060>062-067>071-011200-
EASTERN PENNSYLVANIA

CITY           SKY/WX    TMP DP  RH WIND       PRES   REMARKS
SCRANTON       CLOUDY    55  51  86 VRB7      30.20F
MOUNT POCONO   FOG       49  48  97 E12       30.22S VSB 3/4
ALLENTOWN      CLOUDY    54  51  90 NE9       30.20S FOG
QUAKERTOWN*    CLOUDY    55  55 100 E5        30.21R
READING        CLOUDY    55  53  93 NE5       30.19R
LANCASTER      LGT RAIN  57  57 100 E8        30.17S
COATESVILLE    CLOUDY    55  54  94 NE3G15    30.19R FOG
POTTSTOWN      CLOUDY    55  54  96 NE7       30.20S
BLUE BELL      CLOUDY    54  54 100 NE6       30.18S
DOYLESTOWN     CLOUDY    56  55  97 NE6       30.19S
WILLOW GROVE   NOT AVBL
NORTH PHILA    CLOUDY    58  56  93 NE9       30.20S
PHILADELPHIA   CLOUDY    58  56  93 NE13G20   30.18S
$$




USA.gov is the U.S. government's official web portal to all federal, state and local government web resources and services.